星链-32621 (STARLINK-32621)

导读 | 豆包AI

STARLINK-32621是美国SpaceX公司星链(Starlink)星座的第二代卫星,于2024年12月13日发射入轨。该卫星运行于近地轨道,配备增强型相控阵天线与激光星间链路,单星容量超100Gbps,可为全球用户提供高速低延迟宽带服务。它采用氪离子推进系统,具备自主避碰能力,退役后会在大气层完全销毁,是星链第二代全球卫星互联网组网的重要组成部分。

基本信息
目录编号:
62303
目录名称:
STARLINK-32621
国际标识:
2024-239C
轨道中心:
EARTH
卫星名称:
星链-32621
卫星全名:
星链-32621 (STARLINK-32621)
卫星状态:
在轨 (已飞行502 天)
发射日期:
2024-12-13 UTC
国别 :
美国 (US)
星等 :
--
轨道信息
数据来源 国际轨道数据
星历时间: 2026-04-29T13:22:48+0800
17小时前
查看轨道信息
半长轴: 6853.326km
偏心率: 0.0001046
轨道倾角: 53.159°
近地点辐角 86.579°
升交点赤经 306.219°
平近点角 273.533°
近地点: 474.472km
远地点: 475.906km
周期: 94.105分钟
每日圈数: 15.302088
详细信息
固有亮度:
5
最大亮度:
2.5
卫星平台:
Starlink V1.0
覆盖范围:
全球
运营商:
太空探索技术公司
运营商所在国:
美国
制造商(研发单位):
太空探索技术公司
制造商所在国:
美国
使用方式:
暂无
卫星简介
Starlink 计划是 SpaceX 推出的全球卫星互联网项目,通过发射低轨道卫星,为全球尤其是偏远地区提供高速、低延迟的互联网服务。自 2019 年起,Starlink 已部署数千颗卫星,旨在缩小全球数字鸿沟,推动互联网普及。该项目还为军事、航空等行业提供通信支持,带来广泛经济效益。
2D轨道图
3D轨道图
轨道高度分析图
轨道倾角分析图
轨道综合分析图
查看轨道综合分析图